Weather History for KGUC - October, 2013

Change the Weather History Date:

Sunday, October 13, 2013

  Actual Average Record
Temperature  
Mean Temperature 45 °F -  
Max Temperature 62 °F 58 °F 71 °F (1999)
Min Temperature 28 °F 22 °F 8 °F (2008)
Degree Days  
Heating Degree Days 20    
Moisture  
Dew Point 26 °F    
Average Humidity 54    
Maximum Humidity 81    
Minimum Humidity 22    
Precipitation  
Precipitation 0.00 in - - ()
Sea Level Pressure  
Sea Level Pressure 30.17 in    
Wind  
Wind Speed 8 mph (ENE)    
Max Wind Speed 23 mph    
Max Gust Speed 31 mph    
Visibility 10 miles    
Events      
Averages and records for this station are not official NWS values.
T = Trace of Precipitation, MM = Missing Value Source: NWS Daily Summary

Daily Weather History Graph

Daily Weather History Graph

Search for Another Location

Airport or City:

Trip Planner

Search our weather history database for the weather conditions in past years. The results will help you decide how hot, cold, wet, or windy it might be!

Date:

Astronomy

Oct. 13, 2013 Rise Set
Actual Time 7:15 AM MDT 6:31 PM MDT
Civil Twilight 6:48 AM MDT 6:58 PM MDT
Nautical Twilight 6:17 AM MDT 7:29 PM MDT
Astronomical Twilight 5:47 AM MDT 8:00 PM MDT
Moon 3:21 PM MDT (10/13) 1:32 AM MDT (10/13)
Length of Visible Light 12h 10m
Length of Day
11h 16m
Waxing Gibbous, 70% of the Moon is Illuminated
Oct 13
Waxing Gibbous
Oct 18
Full
Oct 26
Last Quarter
Nov 3
New
Nov 9
First Quarter

Hourly Weather History & Observations

Time (MDT) Temp. Windchill Dew Point Humidity Pressure Visibility Wind Dir Wind Speed Gust Speed Precip Events Conditions
12:15 AM 30.2 °F 22.6 °F 21.2 °F 69% 30.26 in 10.0 mi North 8.1 mph - N/A   Clear
12:35 AM 30.2 °F 23.4 °F 23.0 °F 75% 30.26 in 10.0 mi NNE 6.9 mph - N/A   Clear
12:55 AM 30.2 °F 21.9 °F 21.2 °F 69% 30.26 in 10.0 mi NE 9.2 mph - N/A   Clear
1:15 AM 30.2 °F 25.4 °F 21.2 °F 69% 30.26 in 10.0 mi East 4.6 mph - N/A   Clear
1:35 AM 32.0 °F 27.5 °F 23.0 °F 69% 30.26 in 10.0 mi North 4.6 mph - N/A   Clear
1:55 AM 32.0 °F 24.8 °F 24.8 °F 75% 30.26 in 10.0 mi NNE 8.1 mph - N/A   Clear
2:15 AM 30.2 °F 24.3 °F 23.0 °F 75% 30.26 in 10.0 mi NNE 5.8 mph - N/A   Clear
2:35 AM 32.0 °F 24.8 °F 23.0 °F 69% 30.26 in 10.0 mi NE 8.1 mph - N/A   Scattered Clouds
2:55 AM 33.8 °F 25.3 °F 23.0 °F 65% 30.25 in 10.0 mi North 11.5 mph - N/A   Overcast
3:15 AM 33.8 °F 25.3 °F 23.0 °F 65% 30.25 in 10.0 mi NNE 11.5 mph - N/A   Mostly Cloudy
3:35 AM 32.0 °F 27.5 °F 23.0 °F 69% 30.24 in 10.0 mi NNE 4.6 mph - N/A   Partly Cloudy
3:55 AM 32.0 °F 26.4 °F 21.2 °F 64% 30.24 in 10.0 mi NNE 5.8 mph - N/A   Clear
4:15 AM 30.2 °F 21.3 °F 21.2 °F 69% 30.24 in 10.0 mi North 10.4 mph - N/A   Clear
4:35 AM 30.2 °F 21.9 °F 21.2 °F 69% 30.24 in 10.0 mi NNE 9.2 mph - N/A   Clear
4:55 AM 30.2 °F 25.4 °F 21.2 °F 69% 30.25 in 10.0 mi ENE 4.6 mph - N/A   Clear
5:15 AM 30.2 °F 23.4 °F 21.2 °F 69% 30.25 in 10.0 mi NNE 6.9 mph - N/A   Clear
5:35 AM 30.2 °F 25.4 °F 21.2 °F 69% 30.25 in 10.0 mi NE 4.6 mph - N/A   Clear
5:55 AM 30.2 °F 23.4 °F 21.2 °F 69% 30.25 in 10.0 mi NNE 6.9 mph - N/A   Clear
6:15 AM 30.2 °F 22.6 °F 21.2 °F 69% 30.26 in 10.0 mi NNE 8.1 mph - N/A   Clear
6:35 AM 30.2 °F 26.7 °F 21.2 °F 69% 30.26 in 10.0 mi NNE 3.5 mph - N/A   Clear
6:55 AM 28.4 °F 24.6 °F 19.4 °F 69% 30.26 in 10.0 mi East 3.5 mph - N/A   Clear
7:15 AM 30.2 °F - 21.2 °F 69% 30.26 in 10.0 mi Calm Calm - N/A   Partly Cloudy
7:35 AM 28.4 °F 22.2 °F 19.4 °F 69% 30.27 in 10.0 mi SW 5.8 mph - N/A   Mostly Cloudy
7:55 AM 30.2 °F 26.7 °F 23.0 °F 75% 30.26 in 10.0 mi ENE 3.5 mph - N/A   Scattered Clouds
8:15 AM 30.2 °F - 23.0 °F 75% 30.26 in 10.0 mi Calm Calm - N/A   Clear
8:35 AM 32.0 °F - 24.8 °F 75% 30.26 in 10.0 mi Calm Calm - N/A   Clear
8:55 AM 33.8 °F 30.8 °F 24.8 °F 70% 30.25 in 10.0 mi NE 3.5 mph - N/A   Clear
9:15 AM 37.4 °F 34.9 °F 26.6 °F 65% 30.25 in 10.0 mi ENE 3.5 mph - N/A   Clear
9:55 AM 42.8 °F 39.3 °F 26.6 °F 53% 30.24 in 10.0 mi North 5.8 mph - N/A   Clear
10:15 AM 44.6 °F 40.7 °F 28.4 °F 53% 30.23 in 10.0 mi North 6.9 mph - N/A   Clear
10:35 AM 48.2 °F - 30.2 °F 50% 30.22 in 10.0 mi North 6.9 mph - N/A   Clear
10:55 AM 51.8 °F - 32.0 °F 47% 30.21 in 10.0 mi Calm Calm - N/A   Clear
11:15 AM 53.6 °F - 32.0 °F 44% 30.20 in 10.0 mi Calm Calm - N/A   Clear
11:35 AM 57.2 °F - 30.2 °F 36% 30.19 in 10.0 mi South 5.8 mph - N/A   Clear
11:55 AM 57.2 °F - 28.4 °F 33% 30.18 in 10.0 mi SSE 13.8 mph 17.3 mph N/A   Clear
12:15 PM 57.2 °F - 26.6 °F 31% 30.17 in 10.0 mi SSE 10.4 mph 21.9 mph N/A   Partly Cloudy
12:35 PM 57.2 °F - 28.4 °F 33% 30.16 in 10.0 mi SE 16.1 mph 21.9 mph N/A   Scattered Clouds
12:55 PM 60.8 °F - 26.6 °F 27% 30.14 in 10.0 mi South 21.9 mph 28.8 mph N/A   Partly Cloudy
1:15 PM 60.8 °F - 26.6 °F 27% 30.13 in 10.0 mi South 23.0 mph 31.1 mph N/A   Clear
1:35 PM 60.8 °F - 24.8 °F 25% 30.12 in 10.0 mi South 17.3 mph 29.9 mph N/A   Clear
1:55 PM 60.8 °F - 24.8 °F 25% 30.11 in 10.0 mi South 21.9 mph 28.8 mph N/A   Clear
2:15 PM 60.8 °F - 24.8 °F 25% 30.11 in 10.0 mi South 20.7 mph 28.8 mph N/A   Clear
2:35 PM 62.6 °F - 24.8 °F 24% 30.09 in 10.0 mi South 17.3 mph 26.5 mph N/A   Clear
2:55 PM 60.8 °F - 24.8 °F 25% 30.09 in 10.0 mi South 21.9 mph 28.8 mph N/A   Partly Cloudy
3:15 PM 60.8 °F - 23.0 °F 23% 30.08 in 10.0 mi South 15.0 mph 23.0 mph N/A   Mostly Cloudy
3:35 PM 62.6 °F - 24.8 °F 24% 30.07 in 10.0 mi SSW 12.7 mph 21.9 mph N/A   Mostly Cloudy
3:55 PM 60.8 °F - 21.2 °F 22% 30.07 in 10.0 mi SW 12.7 mph - N/A   Mostly Cloudy
4:15 PM 60.8 °F - 21.2 °F 22% 30.07 in 10.0 mi South 12.7 mph - N/A   Mostly Cloudy
4:35 PM 59.0 °F - 24.8 °F 27% 30.06 in 10.0 mi South 11.5 mph - N/A   Overcast
4:55 PM 59.0 °F - 24.8 °F 27% 30.05 in 10.0 mi South 18.4 mph 24.2 mph N/A   Mostly Cloudy
5:15 PM 60.8 °F - 26.6 °F 27% 30.05 in 10.0 mi South 20.7 mph 26.5 mph N/A   Scattered Clouds
5:35 PM 57.2 °F - 28.4 °F 33% 30.05 in 10.0 mi South 13.8 mph 19.6 mph N/A   Scattered Clouds
5:55 PM 55.4 °F - 28.4 °F 36% 30.06 in 10.0 mi South 17.3 mph 25.3 mph N/A   Scattered Clouds
6:15 PM 53.6 °F - 30.2 °F 41% 30.06 in 10.0 mi South 15.0 mph 24.2 mph N/A   Mostly Cloudy
6:35 PM 53.6 °F - 30.2 °F 41% 30.07 in 10.0 mi South 18.4 mph 27.6 mph N/A   Mostly Cloudy
6:55 PM 53.6 °F - 30.2 °F 41% 30.07 in 10.0 mi SSW 10.4 mph 17.3 mph N/A   Overcast
7:15 PM 53.6 °F - 30.2 °F 41% 30.09 in 10.0 mi SW 5.8 mph - N/A   Mostly Cloudy
7:35 PM 53.6 °F - 30.2 °F 41% 30.10 in 10.0 mi SW 8.1 mph - N/A   Overcast
7:55 PM 51.8 °F - 30.2 °F 44% 30.10 in 10.0 mi West 5.8 mph - N/A   Overcast
8:15 PM 51.8 °F - 30.2 °F 44% 30.12 in 10.0 mi WSW 21.9 mph 29.9 mph N/A   Overcast
8:35 PM 46.4 °F 42.9 °F 33.8 °F 62% 30.10 in 10.0 mi SW 6.9 mph 17.3 mph N/A   Scattered Clouds
8:55 PM 46.4 °F 45.2 °F 33.8 °F 62% 30.09 in 10.0 mi West 3.5 mph - N/A   Clear
9:15 PM 42.8 °F - 35.6 °F 76% 30.09 in 10.0 mi Calm Calm - N/A   Clear
9:35 PM 42.8 °F 38.0 °F 33.8 °F 70% 30.09 in 10.0 mi ENE 8.1 mph - N/A   Clear
9:55 PM 41.0 °F 39.0 °F 33.8 °F 76% 30.09 in 10.0 mi North 3.5 mph - N/A   Partly Cloudy
10:15 PM 41.0 °F 37.1 °F 33.8 °F 76% 30.09 in 10.0 mi NNW 5.8 mph - N/A   Clear
10:35 PM 39.2 °F 37.0 °F 32.0 °F 75% 30.08 in 10.0 mi NNE 3.5 mph - N/A   Clear
10:55 PM 39.2 °F - 32.0 °F 75% 30.07 in 10.0 mi Calm Calm - N/A   Partly Cloudy
11:15 PM 37.4 °F 33.8 °F 30.2 °F 75% 30.06 in 10.0 mi North 4.6 mph - N/A   Partly Cloudy
11:35 PM 37.4 °F 33.8 °F 32.0 °F 81% 30.06 in 10.0 mi North 4.6 mph - N/A   Clear
11:55 PM 37.4 °F 30.8 °F 30.2 °F 75% 30.05 in 10.0 mi NNW 9.2 mph - N/A   Clear